[[{"header":{"parameterUnit":"m.s-1","parameterCategory":1,"la1":30.2991,"la2":30.254,"lo1":-89.0895,"lo2":-89.0444,"dy":0.0017,"dx":0.0017,"nx":28,"ny":28,"refTime":"2023-10-14T09:00:00:Z","depth":0,"parameterNumber":2,"parameterNumberName":"U-component_of_WINDS"},"data":[0,0,0,0,0,0,0,0,0,0,0,0,0,0,0,0,0,0,0,0,0,0,0,0,0,0,0,0,0,0,0,0,0,0,0,0,0,0,0,0,0,0,0,0,0,0,0,0,0,0,0,0,0,0,0,0,0,0,3.1404,3.1404,0,3.1439,3.144,3.144,3.1396,3.1394,3.1393,3.1391,3.1426,3.1428,3.143,0,0,0,0,0,0,0,0,0,0,0,0,0,3.1298,3.13,3.1404,3.1404,3.1405,3.1439,3.144,3.144,3.1396,3.1394,3.1392,3.139,3.1425,3.1428,3.1431,0,0,0,0,0,0,0,0,0,0,0,0,0,3.134,3.1301,3.1404,3.1387,3.1386,3.1439,3.144,3.144,3.1397,3.1394,3.1392,3.1389,3.1424,3.1427,3.1431,3.1502,0,0,3.1442,3.1444,0,0,0,0,0,0,0,0,3.1338,3.1344,3.1389,3.1388,3.1387,3.1411,3.1415,3.1461,3.1397,3.1392,3.1391,3.1388,3.1423,3.1426,3.1438,3.1504,3.1505,3.1443,3.1445,3.1446,3.1447,0,0,0,0,0,0,0,3.1335,3.1342,3.1418,3.139,3.1389,3.1378,3.1381,3.1424,3.1421,3.1393,3.139,3.1394,3.1422,3.1435,3.1439,3.1506,3.1442,3.1446,3.1448,3.1449,3.1634,3.1636,0,0,0,0,0,0,3.1334,3.134,3.1417,3.1419,3.1356,3.1382,3.1385,3.1406,3.142,3.142,3.1396,3.1392,3.143,3.1434,3.144,3.1525,3.1446,3.145,3.1452,3.1631,3.1634,3.1637,0,0,0,0,0,0,3.1332,3.1341,3.1415,3.1379,3.1387,3.1386,3.1409,3.1408,3.1421,3.1423,3.1422,3.141,3.1428,3.1434,3.1488,3.1526,3.1451,3.1455,3.1628,3.1632,3.1636,3.1696,0,0,0,0,0,0,3.1329,3.1341,3.1368,3.138,3.1389,3.1463,3.1412,3.141,3.1427,3.1422,3.1436,3.1436,3.1426,3.1482,3.1491,3.1529,3.1458,3.1624,3.163,3.1634,3.169,3.1701,3.1711,0,0,0,0,0,3.1325,3.1382,3.1369,3.1379,3.1423,3.1465,3.1471,3.1459,3.143,3.1458,3.146,3.1435,3.152,3.1488,3.1498,3.1537,3.1622,3.1628,3.1634,3.1686,3.1699,3.1711,0,0,0,0,0,0,3.1374,3.1383,3.1369,3.1432,3.1448,3.1458,3.1491,3.1474,3.1498,3.1492,3.1476,3.148,3.1537,3.1542,3.1507,3.1608,3.1566,3.1575,3.1602,3.1615,3.1625,3.1623,3.1461,0,0,0,0,0,3.1392,3.1425,3.1432,3.1487,3.1496,3.1493,3.151,3.15,3.1516,3.1523,3.1528,3.1545,3.1575,3.1595,3.1623,3.1691,3.1694,3.1724,3.1734,3.1742,3.1749,3.1787,3.1801,3.1657,3.1657,3.1657,0,0,3.1429,3.1439,3.146,3.1497,3.1508,3.1544,3.1498,3.1537,3.1563,3.1528,3.1579,3.1584,3.1602,3.1663,3.169,3.1669,3.179,3.175,3.1757,3.1759,3.1795,3.1809,3.1821,3.1661,3.1661,3.166,0,0,3.1515,3.1526,3.1573,3.1586,3.1605,3.1603,3.1614,3.1627,3.1629,3.168,3.1656,3.1686,3.1739,3.1753,3.1767,3.1861,3.184,3.1871,3.1924,3.1961,3.1972,3.1982,3.2017,3.2029,3.1878,3.1878,3.1878,0,3.1559,3.1612,3.1599,3.1641,3.1658,3.163,3.1678,3.1691,3.1717,3.173,3.1706,3.1773,3.1783,3.1847,3.1871,3.1883,3.1896,3.1869,3.1972,3.1981,3.1991,3.2023,3.2036,3.1882,3.1881,3.1881,3.188,0,3.1665,3.1702,3.1738,3.1766,3.1787,3.1832,3.1827,3.185,3.1839,3.1839,3.1893,3.1903,3.1934,3.1948,3.1937,3.2013,3.1999,3.1974,3.1932,3.2008,3.2039,3.2051,3.1887,3.1886,3.1884,3.1884,0,0,3.1781,3.1804,3.1817,3.183,3.185,3.1878,3.1922,3.1953,3.1973,3.1993,3.203,3.2076,3.2054,3.207,3.206,3.2093,3.2168,3.2064,3.2064,3.2083,3.2253,3.2272,3.2287,3.2155,3.2157,3.2159,3.2252,0,3.1868,3.1945,3.1936,3.2009,3.2044,3.2019,3.2057,3.2074,3.2076,3.2106,3.2108,3.2141,3.2108,3.2118,3.2149,3.2153,3.2202,3.2146,3.2189,3.2191,3.2186,3.2303,3.2323,3.241,3.2264,3.2266,3.2267,0,3.198,3.2005,3.2082,3.2098,3.2113,3.2147,3.2176,3.2205,3.2223,3.2223,3.2242,3.2227,3.2272,3.2229,3.2291,3.2253,3.227,3.2275,3.2278,3.2282,3.2234,3.231,3.2437,3.2451,3.2286,3.2284,3.2283,0,3.2058,3.2111,3.2165,3.2177,3.2196,3.2222,3.2231,3.2247,3.2267,3.2292,3.2305,3.2335,3.2351,3.2374,3.2369,3.2338,3.2432,3.2389,3.2433,3.2434,3.2454,3.2453,3.2586,3.2465,3.2465,3.2465,3.2464,0,3.2156,3.2204,3.22,3.2233,3.2287,3.2277,3.2331,3.2337,3.2352,3.2386,3.2366,3.2398,3.2388,3.242,3.2415,3.2468,3.2475,3.2476,3.2475,3.2478,3.2478,3.2489,3.2483,3.2468,3.2467,3.2467,3.2466,0,3.2252,3.2251,3.2308,3.2323,3.2328,3.2367,3.238,3.2411,3.2412,3.2456,3.2465,3.2467,3.2504,3.2501,3.2542,3.2539,3.2604,3.2595,3.2598,3.2596,3.2642,3.2638,3.2787,3.2806,3.2672,3.2674,3.2675,0,3.2315,3.2352,3.2371,3.2393,3.2405,3.244,3.246,3.2453,3.2475,3.25,3.2529,3.2564,3.2592,3.2652,3.2657,3.2688,3.268,3.273,3.2685,3.2688,3.2682,3.268,3.2684,3.2739,3.2741,3.2742,3.2743,0,3.2427,3.2425,3.2456,3.2488,3.2513,3.2537,3.2559,3.2578,3.2573,3.2599,3.2637,3.2659,3.2702,3.2737,3.2768,3.2777,3.276,3.2758,3.277,3.2774,3.2775,3.2776,3.2623,3.2754,3.2753,3.2752,3.2752,3.2751,3.2508,3.2541,3.256,3.2596,3.2612,3.2633,3.2664,3.267,3.2702,3.2737,3.273,3.2774,3.2793,3.2832,3.2845,3.2879,3.2861,3.2878,3.2882,3.2887,3.2893,3.277,3.2884,3.2884,3.2884,3.2883,3.2883,0,3.262,3.2632,3.2665,3.2697,3.2725,3.2708,3.2731,3.2756,3.2795,3.2814,3.2843,3.2888,3.2922,3.2931,3.2965,3.299,3.2983,3.2999,3.2997,3.3,3.2906,3.2893,3.3005,3.3005,3.3005,3.3005,3.3005,3.3005,3.2681,3.2735,3.2737,3.2799,3.281,3.2853,3.2868,3.2889,3.2905,3.2956,3.2985,3.2991,3.3007,3.3042,3.3073,3.3075,3.3088,3.3108,3.3107,3.3019,3.3007,3.2995,3.2982,3.3111,3.3111,3.3198,3.3199,3.3199]},{"header":{"parameterUnit":"m.s-1","parameterCategory":1,"la1":30.2991,"la2":30.254,"lo1":-89.0895,"lo2":-89.0444,"dy":0.0017,"dx":0.0017,"nx":28,"ny":28,"refTime":"2023-10-14T09:00:00:Z","depth":0,"parameterNumber":3,"parameterNumberName":"V-component_of_WINDS"},"data":[0,0,0,0,0,0,0,0,0,0,0,0,0,0,0,0,0,0,0,0,0,0,0,0,0,0,0,0,0,0,0,0,0,0,0,0,0,0,0,0,0,0,0,0,0,0,0,0,0,0,0,0,0,0,0,0,0,0,-5.8116,-5.8118,0,-5.8236,-5.8237,-5.8239,-5.8187,-5.8184,-5.8182,-5.8179,-5.8297,-5.8303,-5.8308,0,0,0,0,0,0,0,0,0,0,0,0,0,-5.784,-5.7846,-5.8116,-5.8118,-5.8119,-5.8236,-5.8237,-5.8239,-5.8188,-5.8184,-5.8181,-5.8177,-5.8295,-5.8302,-5.8309,0,0,0,0,0,0,0,0,0,0,0,0,0,-5.796,-5.7847,-5.8116,-5.8108,-5.8108,-5.8235,-5.8237,-5.8239,-5.8189,-5.8184,-5.818,-5.8176,-5.8293,-5.8301,-5.831,-5.8451,0,0,-5.8337,-5.8341,0,0,0,0,0,0,0,0,-5.7953,-5.797,-5.8107,-5.8109,-5.8109,-5.8192,-5.8183,-5.831,-5.819,-5.8158,-5.8179,-5.8174,-5.8265,-5.8276,-5.8308,-5.8456,-5.8461,-5.8338,-5.8343,-5.8347,-5.8349,0,0,0,0,0,0,0,-5.7945,-5.7965,-5.8163,-5.8109,-5.8111,-5.8097,-5.8109,-5.8207,-5.8234,-5.816,-5.8157,-5.8172,-5.8265,-5.83,-5.831,-5.8463,-5.8337,-5.8345,-5.835,-5.8354,-5.8735,-5.8739,0,0,0,0,0,0,-5.7937,-5.7958,-5.8159,-5.8167,-5.8019,-5.8106,-5.8119,-5.817,-5.8233,-5.8239,-5.8176,-5.8169,-5.8287,-5.83,-5.8314,-5.8485,-5.8347,-5.8355,-5.836,-5.873,-5.8736,-5.8741,0,0,0,0,0,0,-5.7932,-5.7956,-5.8155,-5.8062,-5.8086,-5.8115,-5.8172,-5.8175,-5.8209,-5.8245,-5.8249,-5.8206,-5.8284,-5.8302,-5.8418,-5.8488,-5.8359,-5.8367,-5.8724,-5.8732,-5.8739,-5.8826,0,0,0,0,0,0,-5.7924,-5.7954,-5.8008,-5.8063,-5.8091,-5.8258,-5.8177,-5.818,-5.8225,-5.8218,-5.8275,-5.828,-5.8282,-5.8405,-5.8427,-5.8498,-5.8373,-5.8718,-5.8728,-5.8736,-5.8817,-5.8835,-5.8851,0,0,0,0,0,-5.7914,-5.8027,-5.8011,-5.8036,-5.816,-5.8262,-5.8277,-5.8279,-5.8231,-5.8286,-5.8309,-5.8278,-5.8477,-5.8418,-5.8441,-5.8516,-5.8714,-5.8725,-5.8736,-5.8809,-5.8832,-5.8851,0,0,0,0,0,0,-5.7977,-5.8034,-5.8017,-5.8151,-5.8202,-5.8253,-5.8322,-5.8302,-5.8367,-5.8357,-5.8355,-5.8368,-5.8488,-5.8513,-5.8446,-5.8657,-5.8588,-5.8604,-5.8636,-5.8657,-5.8674,-5.8666,-5.8381,0,0,0,0,0,-5.8007,-5.8086,-5.813,-5.8244,-5.8271,-5.8292,-5.8336,-5.8334,-5.8386,-5.8406,-5.8438,-5.8489,-5.8563,-5.8611,-5.8681,-5.882,-5.8832,-5.8884,-5.8901,-5.8914,-5.8929,-5.9006,-5.9029,-5.8777,-5.8777,-5.8777,0,0,-5.8068,-5.8109,-5.8159,-5.8258,-5.8297,-5.8379,-5.8311,-5.8399,-5.8459,-5.8419,-5.8532,-5.8557,-5.8613,-5.8742,-5.88,-5.8767,-5.9001,-5.8928,-5.8939,-5.8946,-5.9019,-5.9043,-5.9064,-5.8785,-5.8783,-5.8782,0,0,-5.8222,-5.8261,-5.8361,-5.8403,-5.8464,-5.8477,-5.8502,-5.8556,-5.8572,-5.8685,-5.8657,-5.8728,-5.8855,-5.8897,-5.8935,-5.9108,-5.9083,-5.9131,-5.922,-5.9295,-5.9315,-5.9333,-5.9395,-5.9418,-5.9145,-5.9145,-5.9145,0,-5.8291,-5.8413,-5.8414,-5.8506,-5.8551,-5.8521,-5.8622,-5.8662,-5.8742,-5.8773,-5.8735,-5.8896,-5.8932,-5.9071,-5.9113,-5.9145,-5.9172,-5.9124,-5.9312,-5.933,-5.9346,-5.9406,-5.943,-5.915,-5.915,-5.9149,-5.9149,0,-5.8495,-5.8581,-5.8654,-5.8735,-5.8788,-5.8884,-5.8899,-5.8952,-5.8945,-5.8963,-5.9079,-5.9121,-5.92,-5.9233,-5.9225,-5.9372,-5.9349,-5.9312,-5.9243,-5.9376,-5.9432,-5.9455,-5.9158,-5.9156,-5.9155,-5.9153,0,0,-5.8691,-5.8773,-5.88,-5.8837,-5.8904,-5.8969,-5.9064,-5.9143,-5.9189,-5.9246,-5.9326,-5.9435,-5.9402,-5.9445,-5.9443,-5.9509,-5.9645,-5.9463,-5.9465,-5.9496,-5.9809,-5.9838,-5.9864,-5.9628,-5.9632,-5.9636,-5.9805,0,-5.8851,-5.9019,-5.9024,-5.9177,-5.9257,-5.923,-5.9313,-5.9362,-5.9382,-5.9451,-5.9472,-5.9551,-5.95,-5.9526,-5.959,-5.9614,-5.9707,-5.9602,-5.9702,-5.9705,-5.9689,-5.9893,-5.9923,-6.008,-5.9827,-5.983,-5.9833,0,-5.9059,-5.9126,-5.9288,-5.9345,-5.9378,-5.9453,-5.9527,-5.9594,-5.9649,-5.9659,-5.9709,-5.9697,-5.9793,-5.9722,-5.9855,-5.9783,-5.9824,-5.9843,-5.9849,-5.9858,-5.9778,-5.9909,-6.013,-6.0154,-5.9867,-5.9865,-5.9862,0,-5.9187,-5.9317,-5.9431,-5.9463,-5.9532,-5.9585,-5.9616,-5.9668,-5.9716,-5.978,-5.9811,-5.9885,-5.9926,-5.9983,-5.9992,-5.9938,-6.0126,-6.0054,-6.0136,-6.0136,-6.0177,-6.0174,-6.0409,-6.0203,-6.0202,-6.0202,-6.0201,0,-5.9366,-5.9466,-5.949,-5.956,-5.9672,-5.9677,-5.9787,-5.9813,-5.986,-5.9935,-5.9915,-5.9986,-5.9993,-6.0065,-6.0072,-6.0182,-6.02,-6.021,-6.0211,-6.0213,-6.0212,-6.024,-6.0229,-6.0208,-6.0207,-6.0206,-6.0204,0,-5.9528,-5.9547,-5.967,-5.9727,-5.9743,-5.9823,-5.9871,-5.9938,-5.9956,-6.0051,-6.0074,-6.0102,-6.0186,-6.0201,-6.0299,-6.0304,-6.0436,-6.0425,-6.0418,-6.0417,-6.0499,-6.0491,-6.076,-6.0796,-6.0565,-6.0568,-6.0569,0,-5.964,-5.9717,-5.9783,-5.9833,-5.9867,-5.9947,-5.9996,-6.0004,-6.0056,-6.0127,-6.0186,-6.0269,-6.0335,-6.0471,-6.05,-6.0576,-6.0567,-6.0656,-6.0578,-6.0578,-6.057,-6.0565,-6.0574,-6.0671,-6.0673,-6.0675,-6.0677,0,-5.9839,-5.9846,-5.9919,-5.9997,-6.0057,-6.0118,-6.0175,-6.0217,-6.0232,-6.0292,-6.0379,-6.0431,-6.0533,-6.0616,-6.0692,-6.0722,-6.0703,-6.0702,-6.0725,-6.0727,-6.0721,-6.0727,-6.046,-6.0695,-6.0694,-6.0692,-6.0691,-6.069,-5.998,-6.0048,-6.0106,-6.0189,-6.0233,-6.0288,-6.0355,-6.0383,-6.0456,-6.0541,-6.0541,-6.0637,-6.0692,-6.0792,-6.0828,-6.0903,-6.0874,-6.0907,-6.0916,-6.0924,-6.0933,-6.0709,-6.0916,-6.0916,-6.0915,-6.0915,-6.0914,0,-6.0179,-6.0215,-6.0291,-6.0374,-6.0439,-6.0417,-6.048,-6.0536,-6.0621,-6.0675,-6.0742,-6.0843,-6.0924,-6.096,-6.1039,-6.1092,-6.1086,-6.1113,-6.1109,-6.1117,-6.0953,-6.0926,-6.1117,-6.1117,-6.1117,-6.1117,-6.1117,-6.1117,-6.029,-6.0405,-6.0419,-6.0555,-6.059,-6.0686,-6.0724,-6.0775,-6.0818,-6.0933,-6.1,-6.1024,-6.1071,-6.1154,-6.1227,-6.1236,-6.1266,-6.1298,-6.1302,-6.1149,-6.1128,-6.1109,-6.1083,-6.1304,-6.1305,-6.146,-6.1462,-6.1463]}]]